Location: Klickitat County Star Party
(45.8642°N, 120.6771°W)
Time: 11:39:31
(UTC-07:00)

SO-50 - Pass Details

Date: 29 May 2019
Orbit: 586 x 700 km, 64.6° (Epoch: 17 June)

Event Time Altitude Azimuth Distance (km) Brightness Sun altitude
Rises 01:51:05 0° 324° (NW) 3,086 ? -21.5°
Reaches altitude 10° 01:53:28 10° 325° (NW) 2,158 ? -21.5°
Maximum altitude 01:58:24 79° 52° (NE) 701 ? -21.2°
Enters shadow 02:00:40 32° 136° (SE) 1,166 ? -21.1°
